This is the latest recevied weather packets stored in our database for station/object K3TLB-13. If no packets are shown the sender has not sent any weather packets the latest 10 day(s).
| Time | Temp. | Humidity | Pressure | Rain* | Wind** | Luminosity | Snow |
|---|---|---|---|---|---|---|---|
| 1778177335 | 16.11° C | 38% | 1009.9 hPa | 0 mm | - | - | - |
| 1778177036 | 16.11° C | 39% | 1009.9 hPa | 0 mm | - | - | - |
| 1778176735 | 16.11° C | 37% | 1009.9 hPa | 0 mm | - | - | - |
| 1778176439 | 16.11° C | 40% | 1010.1 hPa | 0 mm | - | - | - |
| 1778176136 | 16.11° C | 43% | 1010.2 hPa | 0 mm | - | - | - |
| 1778175835 | 16.11° C | 40% | 1010.2 hPa | 0 mm | - | - | - |
| 1778175670 | 15.56° C | 38% | 1010.3 hPa | 0 mm | - | - | - |
| 1778175535 | 15.56° C | 38% | 1010.3 hPa | 0 mm | - | - | - |
| 1778175235 | 15.56° C | 40% | 1010.4 hPa | 0 mm | - | - | - |
| 1778174935 | 16.11° C | 38% | 1010.5 hPa | 0 mm | - | - | - |
| 1778174637 | 16.11° C | 41% | 1010.6 hPa | 0 mm | - | - | - |
| 1778174335 | 15.56° C | 37% | 1010.6 hPa | 0 mm | - | - | - |
| 1778174035 | 15.56° C | 39% | 1010.7 hPa | 0 mm | - | - | - |
| 1778173913 | 15° C | 39% | 1010.9 hPa | 0 mm | - | - | - |
| 1778173735 | 15.56° C | 39% | 1010.8 hPa | 0 mm | - | - | - |
| 1778173471 | 15° C | 39% | 1010.9 hPa | 0 mm | - | - | - |
| 1778173435 | 15° C | 39% | 1010.9 hPa | 0 mm | - | - | - |
| 1778173135 | 15° C | 38% | 1010.9 hPa | 0 mm | - | - | - |
| 1778172835 | 15° C | 43% | 1011.1 hPa | 0 mm | - | - | - |
| 1778172580 | 15° C | 43% | 1011.2 hPa | 0 mm | - | - | - |
| 1778172535 | 15° C | 43% | 1011.2 hPa | 0 mm | - | - | - |
| 1778172414 | 15° C | 41% | 1011.2 hPa | 0 mm | - | - | - |
| 1778172236 | 15° C | 41% | 1011.2 hPa | 0 mm | - | - | - |
| 1778171936 | 15° C | 40% | 1011.2 hPa | 0 mm | - | - | - |
| 1778171681 | 15° C | 39% | 1011.4 hPa | 0 mm | - | - | - |
* Rain latest hour (hover to see other rain measurements)
** Current wind speed in m/s (hover to see current wind gust speed)